Preview of NWS' New Version of Forecast
This preview is not operational and should not be used for support decisions.

Regional Weather Roundup (RWR)

Issued by Philadelphia/Mt Holly (PHI)

                            
000
ASUS41 KPHI 170511
RWRPHI

REGIONAL WEATHER ROUNDUP
NATIONAL WEATHER SERVICE MOUNT HOLLY NJ
1200 AM EST THU JAN 17 2019

NOTE:  "FAIR" INDICATES FEW OR NO CLOUDS BELOW 12,000 FEET WITH NO
SIGNIFICANT WEATHER AND/OR OBSTRUCTIONS TO VISIBILITY.

 * = STATION DOES NOT REPORT PRECIPITATION (E.G. RAIN, SNOW, ETC.) 
        OR FOG.

NJZ015>026-170600-
SOUTHERN NEW JERSEY
  
CITY           SKY/WX    TMP DP  RH WIND       PRES   REMARKS
POMONA         FAIR      32  24  72 W9        30.26R WCI  24          
WILDWOOD*      FAIR      37  26  64 W7        30.28S WCI  32          
MILLVILLE      FAIR      29  23  78 SW3       30.27R                  
WRIGHTSTOWN    CLOUDY    35  23  61 W5        30.22R WCI  31          
MOUNT HOLLY    MOCLDY    36  23  59 W7        30.26R WCI  30          
TRENTON        FAIR      34  22  61 W7        30.24R WCI  28          

$$
NJZ001>014-170600-
NORTHERN NEW JERSEY
  
CITY           SKY/WX    TMP DP  RH WIND       PRES   REMARKS
SUSSEX         FAIR      27  13  55 N8        30.26R WCI  19          
ANDOVER*         N/A     28  14  55 N9        30.24R WCI  19          
MORRISTOWN     FAIR      32  18  55 N8G17     30.25R WCI  25          
NEWARK         MOCLDY    34  13  41 NW16      30.24R WCI  24          
TETERBORO      FAIR      32  15  49 N12G29    30.24R WCI  23          
CALDWELL       FAIR      31  15  52 N6        30.26R WCI  25          
SOMERVILLE     FAIR      33  16  49 N6        30.24R WCI  28          
TOMS RIVER*    MOCLDY    31  24  75 W7        30.25R WCI  24          

$$
PAZ043-044-047-054-055-060>062-066>071-170600-
EASTERN PENNSYLVANIA
  
CITY           SKY/WX    TMP DP  RH WIND       PRES   REMARKS
PHILADELPHIA   MOCLDY    35  23  61 W8        30.27R WCI  29          
NORTH PHILA    CLOUDY    34  22  61 W7        30.27R WCI  28          
BLUE BELL*     FAIR      32  19  59 NW7       30.27R WCI  26          
DOYLESTOWN     FAIR      33  18  53 NW7G17    30.23R WCI  27          
QUAKERTOWN*    CLEAR     32  16  51 W8        30.25  WCI  25          
PERKASIE*      FAIR      32  16  51 NW8G17    30.25R WCI  25          
POTTSTOWN      FAIR      32  17  54 NW12      30.26R WCI  23          
LANCASTER      CLOUDY    36  25  64 NW8       30.26R WCI  30          
COATESVILLE    CLOUDY    32  25  74 NW6       30.25S WCI  26          
READING        CLOUDY    33  19  56 N8        30.26R WCI  26          
ALLENTOWN      FAIR      32  13  45 NW12      30.26R WCI  23          
MOUNT POCONO   FAIR      20  13  74 NW12      30.16R WCI   8          
HAZLETON       FAIR      25  12  58 NW7       30.22R WCI  17          
LEHIGHTON      FAIR      30  14  51 CALM      30.27R                  
WILKES BARRE   CLOUDY    24   8  50 N10       30.25R WCI  14          

$$
DEZALL-MDZ008-012-015-019-020-170600-
DELAWARE AND EASTERN MARYLAND
  
CITY           SKY/WX    TMP DP  RH WIND       PRES   REMARKS
WILMINGTON     CLOUDY    35  25  66 W6        30.28R WCI  30          
DOVER          CLOUDY    43  19  39 W6        30.28S                  
GEORGETOWN     MOCLDY    37  27  67 CALM      30.30R                  
EASTON         CLOUDY    37  26  63 NW6       30.34S WCI  33          
PATUXENT       CLOUDY    38  30  73 N9        30.31  WCI  31          
OCEAN CITY     CLOUDY    30  27  88 W5        30.31R WCI  25          
WALLOPS ISLAND FAIR      28  24  85 CALM      30.31R                  
CAMBRIDGE      CLOUDY    32  30  93 CALM      30.31S                  
SALISBURY      CLOUDY    29  28  96 CALM      30.30R                  

$$
PAZ001-021-NYZ056-072-MDZ011-DCZ001-170600-
OTHER NEARBY LOCATIONS
  
CITY           SKY/WX    TMP DP  RH WIND       PRES   REMARKS
HARRISBURG     CLOUDY    36  22  56 NW10      30.27R WCI  28          
STATE COLLEGE  FAIR      25  16  67 NW3       30.26S                  
WILLIAMSPORT   FAIR      26  13  57 W6        30.29R WCI  19          
BINGHAMTON     FAIR      14   7  73 NW9       30.21R WCI   2          
NEW YORK CITY  FAIR      34  15  46 MISG      30.25R                  
BALTIMORE      CLOUDY    37  25  61 W7        30.30R WCI  32          
WASHINGTON DC  CLOUDY    40  23  50 NW12      30.33R WCI  33          

$$